This is the latest recevied weather packets stored in our database for station/object EA5GK-10. If no packets are shown the sender has not sent any weather packets the latest 10 day(s).
| Time | Temp. | Humidity | Pressure | Rain* | Wind** | Luminosity | Snow |
|---|---|---|---|---|---|---|---|
| 1778018415 | 23.33° C | 41% | 1013.2 hPa | - | - | - | - |
| 1778017514 | 23.33° C | 41% | 1013.2 hPa | - | - | - | - |
| 1778016614 | 23.33° C | 41% | 1013.2 hPa | - | - | - | - |
| 1778015714 | 23.33° C | 40% | 1013.3 hPa | - | - | - | - |
| 1778014814 | 23.33° C | 40% | 1013.1 hPa | - | - | - | - |
| 1778013914 | 23.89° C | 39% | 1013.1 hPa | - | - | - | - |
| 1778013014 | 23.89° C | 39% | 1013.2 hPa | - | - | - | - |
| 1778012114 | 23.89° C | 39% | 1012.6 hPa | - | - | - | - |
| 1778011233 | 23.89° C | 38% | 1012.6 hPa | - | - | - | - |
| 1778010313 | 23.89° C | 38% | 1012.3 hPa | - | - | - | - |
| 1778009413 | 23.89° C | 37% | 1012.3 hPa | - | - | - | - |
| 1778008514 | 23.89° C | 36% | 1012.1 hPa | - | - | - | - |
| 1778007613 | 23.89° C | 35% | 1012 hPa | - | - | - | - |
| 1778006713 | 23.33° C | 34% | 1011.9 hPa | - | - | - | - |
| 1778005813 | 23.33° C | 33% | 1011.9 hPa | - | - | - | - |
| 1778004913 | 23.33° C | 32% | 1011.7 hPa | - | - | - | - |
| 1778004013 | 23.33° C | 31% | 1011.6 hPa | - | - | - | - |
| 1778003112 | 23.89° C | 32% | 1011.5 hPa | - | - | - | - |
| 1778002212 | 23.89° C | 37% | 1011.4 hPa | - | - | - | - |
| 1778001312 | 23.89° C | 35% | 1011.3 hPa | - | - | - | - |
| 1778000412 | 23.89° C | 43% | 1011.3 hPa | - | - | - | - |
| 1777999512 | 23.89° C | 43% | 1011.3 hPa | - | - | - | - |
| 1777998612 | 23.89° C | 42% | 1011.4 hPa | - | - | - | - |
| 1777997711 | 23.89° C | 42% | 1011.4 hPa | - | - | - | - |
| 1777996811 | 23.89° C | 42% | 1011.2 hPa | - | - | - | - |
* Rain since midnight (hover to see other rain measurements)
** Current wind speed in m/s (hover to see current wind gust speed)